カタログに戻る

STARLINK-35117

運用中通信VLEO
NORAD 65632·PAYLOAD·🇺🇸 United States

打ち上げ Sep 18, 2025 から Cape Canaveral Space Force Station

Loading…

次のパス (今後24時間)

TLE

最新Source: CelesTrak SupGP

元期: Sep 15, 2026, 02:29 UTC

1 65632C 25210L   26258.10395833 -.00004219  00000+0 -12469-3 0  2587
2 65632  53.1601 147.0067 0001294  90.2069 319.6418 15.34382652    19

AllMySatでSTARLINK-35117をリアルタイム追跡

Download on the App Store